Regional Weather Roundup
Issued by NWS

Home | Current Version | Previous Version | Text Only | Print | Product List | Glossary On
Versions: 1 2 3 4 5 6 7 8 9 10 11 12 13 14 15 16 17 18 19 20 21 22 23 24 25 26 27 28 29 30 31 32 33 34 35 36 37 38 39 40 41 42 43 44 45 46 47 48 49 50
000
ASCA42 TJSJ 271511
RWRPR
PUERTO RICO/U.S. VIRGIN ISLANDS HOURLY WEATHER ROUNDUP
NATIONAL WEATHER SERVICE SAN JUAN PR
1100 AM AST TUE JAN 27 2015

PRZ001-004-271600-
PUERTO RICO

CITY           SKY/WX    TMP DP  RH WIND       PRES   REMARKS
SAN JUAN LMM   MOSUNNY   84  72  65 S6        30.03R
AGUADILLA      MOSUNNY   81  70  69 N7        30.05S
CEIBA          PTSUNNY   84  72  65 S14       30.06S
$$

PRZ006-007-271600-
U.S. VIRGIN ISLANDS

CITY           SKY/WX    TMP DP  RH WIND       PRES   REMARKS
CHARLOTTE AMA  SUNNY     82  72  69 SE16      30.04
$$

HOURLY WEATHER ROUNDUP FOR THE NEWS MEDIA

CITY           SKY/WX    TMP DP  RH WIND       PRES   REMARKS
MIAMI          SUNNY     60  46  59 NW12G20   30.09R
ORLANDO        SUNNY     54  36  50 W15       30.05R
NEW YORK       SNOW      23  17  78 N23G32    29.68S VSB 1/2 WCI   7
NEWARK         LGT SNOW  24  20  84 N14       29.71F WCI  12
CHICAGO        CLOUDY    28  20  71 NE10      30.11R WCI  19
HARTFORD       CLOUDY    21  17  84 N17G38    29.39F WCI   7
BOSTON         SNOW      16  12  84 N21G30    29.54F VSB 1/2 WCI  -1
DALLAS         MOSUNNY   53  40  61 CALM      30.17R
PHILADELPHIA   FLURRIES  27  21  78 N14       29.77R WCI  16



USA.gov is the U.S. government's official web portal to all federal, state and local government web resources and services.